Tracking 32579 objects as of 15-Dec-2025
HD Live streaming from Space Station
objects crossing your sky now

COSMOS 2357

Track COSMOS 2357 now!
10-day predictions
COSMOS 2357 is classified as:


NORAD ID: 25368
Int'l Code: 1998-036F
Perigee: 1,301.0 km
Apogee: 1,869.0 km
Inclination: 82.6 °
Period: 117.7 minutes
Semi major axis: 7955 km
RCS: 1.0721 m2 (large)
Launch date: June 15, 1998
Source: Commonwealth of Independent States (former USSR) (CIS)
Launch site: PLESETSK MISSILE AND SPACE COMPLEX (PKMTR)

Satellites have a single simultaneous earth-space and space-earth channel.
Your satellite tracking list
Your tracking list is empty




NASA's NSSDC Master Catalog

Two Line Element Set (TLE):
1 25368U 98036F   25348.72414403 -.00000003  00000-0 -11056-3 0  9998
2 25368  82.5872  70.5190 0356946 158.5751 203.0696 12.23381998228087
Source of the keplerian elements: AFSPC